Total_Precipitation_Accumulation
0.29 0.29 0.24 0.19 0.18 0.18 0.22 0.27 0.46 0.69 1.01 1.35 1.46 1.63 1.78 1.81 1.67 1.50 1.45 1.38 1.26 1.22 1.16 1.04 1.00 0.97 0.93 0.84 0.76 0.68 0.64 0.63 0.66 0.70 0.69 0.66 0.64 0.62 0.60 0.57 0.52 0.51 0.52 0.50
0.27 0.26 0.28 0.25 0.22 0.20 0.26 0.33 0.49 0.75 1.14 1.42 1.54 1.61 1.71 1.79 1.70 1.60 1.58 1.55 1.57 1.60 1.53 1.36 1.22 1.14 1.03 0.91 0.84 0.77 0.76 0.75 0.74 0.74 0.70 0.68 0.65 0.64 0.64 0.61 0.56 0.50 0.49 0.48
0.32 0.23 0.35 0.52 0.40 0.35 0.40 0.46 0.61 0.87 1.09 1.22 1.38 1.57 1.59 1.61 1.72 1.72 1.78 1.86 1.88 1.82 1.70 1.52 1.40 1.35 1.25 1.11 1.00 0.95 0.92 0.85 0.78 0.72 0.68 0.65 0.58 0.61 0.64 0.61 0.55 0.49 0.45 0.47
0.41 0.44 0.72 0.68 0.41 0.41 0.56 0.66 0.68 0.75 0.82 1.01 1.26 1.41 1.42 1.50 1.70 1.79 1.77 1.77 1.76 1.67 1.58 1.49 1.44 1.37 1.23 1.10 1.04 0.97 0.91 0.83 0.72 0.64 0.64 0.64 0.64 0.64 0.61 0.57 0.53 0.53 0.51 0.50
0.53 0.72 0.79 0.78 0.50 0.46 0.67 0.86 0.69 0.75 0.78 0.91 1.03 1.20 1.45 1.53 1.66 1.82 1.71 1.65 1.68 1.67 1.59 1.54 1.48 1.36 1.24 1.13 1.00 0.95 0.88 0.74 0.62 0.56 0.56 0.57 0.58 0.56 0.54 0.54 0.52 0.47 0.43 0.44
0.67 0.85 0.98 0.89 0.48 0.38 0.67 1.20 0.88 0.86 0.88 0.89 0.98 1.28 1.42 1.38 1.35 1.41 1.45 1.51 1.64 1.73 1.76 1.68 1.55 1.32 1.21 1.09 0.93 0.81 0.68 0.58 0.53 0.51 0.48 0.45 0.44 0.47 0.48 0.49 0.46 0.39 0.36 0.38
0.79 1.06 1.12 0.58 0.31 0.45 0.98 1.19 0.99 0.93 0.94 0.93 1.05 1.14 1.04 1.03 1.14 1.25 1.39 1.51 1.62 1.64 1.61 1.56 1.46 1.26 1.16 1.03 0.86 0.68 0.55 0.50 0.50 0.44 0.36 0.32 0.36 0.42 0.43 0.39 0.38 0.37 0.37 0.35
0.88 1.13 1.22 0.53 0.37 0.61 0.76 0.66 0.65 0.68 0.72 0.75 0.82 0.86 0.92 0.96 1.03 1.09 1.24 1.38 1.46 1.41 1.34 1.24 1.15 1.08 1.03 0.91 0.69 0.53 0.48 0.47 0.45 0.38 0.24 0.22 0.31 0.35 0.34 0.36 0.35 0.33 0.33 0.31
1.00 1.15 0.82 0.46 0.43 0.43 0.48 0.50 0.49 0.55 0.57 0.61 0.66 0.76 0.90 1.03 1.08 1.08 1.06 1.12 1.14 1.05 0.97 0.96 0.91 0.88 0.84 0.70 0.53 0.46 0.44 0.45 0.40 0.34 0.28 0.22 0.26 0.29 0.29 0.30 0.27 0.23 0.25 0.26
0.87 0.91 0.65 0.45 0.37 0.36 0.36 0.37 0.40 0.50 0.54 0.53 0.54 0.58 0.69 0.78 0.87 0.91 0.89 0.87 0.84 0.79 0.74 0.73 0.71 0.68 0.62 0.51 0.45 0.46 0.47 0.43 0.40 0.39 0.33 0.25 0.22 0.18 0.19 0.23 0.24 0.23 0.24 0.25
0.95 0.92 0.72 0.58 0.43 0.36 0.35 0.35 0.41 0.47 0.46 0.44 0.40 0.42 0.49 0.59 0.63 0.66 0.63 0.60 0.60 0.61 0.58 0.54 0.51 0.51 0.48 0.41 0.38 0.43 0.40 0.33 0.30 0.27 0.27 0.27 0.21 0.12 0.10 0.12 0.11 0.15 0.17 0.17
1.03 0.84 0.72 0.64 0.51 0.41 0.38 0.36 0.36 0.33 0.33 0.37 0.37 0.38 0.42 0.50 0.54 0.53 0.48 0.47 0.51 0.53 0.51 0.49 0.47 0.44 0.39 0.31 0.30 0.36 0.33 0.27 0.22 0.18 0.17 0.17 0.22 0.16 0.07 0.04 0.04 0.05 0.06 0.07
0.61 0.51 0.49 0.45 0.43 0.44 0.36 0.29 0.28 0.27 0.27 0.31 0.32 0.32 0.34 0.37 0.37 0.35 0.36 0.38 0.42 0.44 0.44 0.42 0.41 0.42 0.38 0.29 0.26 0.29 0.30 0.24 0.17 0.15 0.15 0.14 0.19 0.25 0.21 0.12 0.06 0.06 0.05 0.05
0.45 0.47 0.50 0.38 0.31 0.29 0.22 0.21 0.21 0.21 0.23 0.25 0.26 0.25 0.26 0.27 0.27 0.28 0.31 0.30 0.31 0.30 0.30 0.32 0.32 0.33 0.33 0.25 0.20 0.18 0.17 0.12 0.11 0.14 0.13 0.14 0.15 0.16 0.19 0.22 0.24 0.21 0.11 0.06
0.40 0.38 0.35 0.24 0.18 0.18 0.15 0.13 0.15 0.17 0.20 0.23 0.20 0.17 0.17 0.23 0.26 0.25 0.23 0.21 0.22 0.22 0.22 0.24 0.25 0.24 0.24 0.20 0.16 0.12 0.10 0.11 0.11 0.11 0.11 0.10 0.11 0.12 0.13 0.16 0.19 0.21 0.18 0.13
0.30 0.23 0.17 0.15 0.15 0.16 0.14 0.12 0.12 0.14 0.16 0.18 0.16 0.16 0.16 0.19 0.21 0.22 0.18 0.17 0.19 0.19 0.17 0.18 0.19 0.16 0.17 0.15 0.12 0.12 0.08 0.05 0.06 0.06 0.05 0.06 0.08 0.09 0.10 0.12 0.16 0.19 0.20 0.18
0.21 0.19 0.16 0.14 0.12 0.13 0.12 0.12 0.11 0.10 0.11 0.15 0.15 0.13 0.13 0.18 0.19 0.19 0.16 0.15 0.16 0.14 0.12 0.13 0.13 0.13 0.14 0.12 0.08 0.05 0.05 0.02 0.02 0.03 0.04 0.05 0.04 0.05 0.07 0.09 0.14 0.19 0.18 0.15
0.13 0.11 0.10 0.09 0.07 0.07 0.07 0.07 0.07 0.07 0.07 0.09 0.09 0.11 0.14 0.17 0.17 0.14 0.12 0.10 0.10 0.11 0.10 0.08 0.08 0.10 0.12 0.10 0.06 0.03 0.02 0.02 0.02 0.03 0.03 0.02 0.02 0.03 0.06 0.08 0.10 0.13 0.16 0.17
0.07 0.06 0.07 0.06 0.05 0.05 0.05 0.05 0.05 0.03 0.03 0.06 0.09 0.13 0.15 0.13 0.11 0.09 0.09 0.08 0.08 0.10 0.09 0.06 0.07 0.08 0.09 0.07 0.05 0.03 0.02 0.01 0.01 0.02 0.01 0.01 0.01 0.03 0.05 0.06 0.08 0.10 0.12 0.17
0.06 0.04 0.05 0.05 0.03 0.03 0.04 0.03 0.02 0.02 0.03 0.06 0.08 0.09 0.12 0.10 0.08 0.06 0.08 0.08 0.06 0.04 0.04 0.04 0.04 0.06 0.06 0.04 0.02 0.01 0.01 0.01 0.01 0.01 0.01 0.01 0.02 0.02 0.03 0.04 0.06 0.08 0.11 0.15
0.04 0.03 0.03 0.03 0.03 0.02 0.03 0.02 0.03 0.03 0.04 0.06 0.05 0.04 0.04 0.04 0.05 0.05 0.07 0.08 0.06 0.03 0.02 0.02 0.03 0.03 0.03 0.02 0.01 0.01 0.01 0.02 0.02 0.01 0.01 0.02 0.02 0.02 0.03 0.03 0.04 0.05 0.08 0.10
0.04 0.03 0.03 0.03 0.03 0.03 0.04 0.03 0.03 0.03 0.05 0.05 0.03 0.03 0.03 0.03 0.04 0.06 0.05 0.04 0.04 0.02 0.01 0.01 0.01 0.01 0.01 0.01 0.00 0.00 0.01 0.01 0.01 0.01 0.01 0.01 0.02 0.02 0.02 0.02 0.03 0.03 0.05 0.05
0.08 0.06 0.04 0.03 0.03 0.04 0.04 0.04 0.03 0.03 0.03 0.03 0.02 0.02 0.02 0.03 0.04 0.04 0.02 0.01 0.01 0.01 0.01 0.01 0.01 0.01 0.01 0.01 0.00 0.00 0.00 0.01 0.01 0.01 0.01 0.01 0.01 0.01 0.01 0.01 0.02 0.02 0.03 0.03
0.10 0.08 0.05 0.04 0.04 0.05 0.05 0.04 0.04 0.04 0.02 0.02 0.01 0.01 0.02 0.03 0.03 0.02 0.01 0.01 0.02 0.02 0.01 0.00 0.01 0.01 0.01 0.00 0.00 0.00 0.01 0.01 0.01 0.01 0.01 0.01 0.01 0.01 0.01 0.01 0.01 0.02 0.02 0.03
0.14 0.11 0.08 0.08 0.08 0.08 0.06 0.05 0.04 0.03 0.02 0.01 0.01 0.01 0.01 0.02 0.02 0.01 0.01 0.01 0.02 0.01 0.01 0.00 0.01 0.01 0.01 0.00 0.01 0.01 0.01 0.01 0.01 0.01 0.01 0.01 0.01 0.01 0.01 0.01 0.01 0.02 0.02 0.03
0.22 0.18 0.15 0.13 0.12 0.09 0.06 0.05 0.04 0.03 0.02 0.01 0.01 0.01 0.01 0.01 0.01 0.01 0.01 0.01 0.01 0.01 0.00 0.00 0.01 0.01 0.01 0.01 0.01 0.02 0.02 0.02 0.02 0.02 0.02 0.02 0.01 0.02 0.02 0.02 0.02 0.03 0.03 0.03
0.27 0.21 0.18 0.12 0.10 0.06 0.05 0.05 0.03 0.02 0.02 0.01 0.01 0.01 0.01 0.01 0.00 0.00 0.00 0.01 0.00 0.00 0.00 0.01 0.02 0.01 0.01 0.01 0.01 0.02 0.02 0.02 0.02 0.02 0.02 0.02 0.02 0.02 0.02 0.03 0.03 0.04 0.04 0.04